Regional Weather Roundup
Issued by NWS

Home | Current Version | Previous Version | Graphics & Text | Print | Product List | Glossary Off
Versions: 1 2 3 4 5 6 7 8 9 10 11 12 13 14 15 16 17 18 19 20 21 22 23 24 25 26 27 28 29 30 31 32 33 34 35 36 37 38 39 40 41 42 43 44 45 46 47 48 49 50

000
ASUS43 KDTX 150810
RWRMI
MICHIGAN HOURLY REGIONAL WEATHER ROUNDUP
NATIONAL WEATHER SERVICE DETROIT/PONTIAC MI
300 AM EST FRI DEC 15 2017

NOTE: "FAIR" INDICATES FEW OR NO CLOUDS BELOW 12,000 FEET WITH NO
SIGNIFICANT WEATHER AND/OR OBSTRUCTION TO VISIBILITY.

MIZ047>049-052>055-059>063-066>070-074>076-081>083-150900-
SOUTHEAST LOWER MICHIGAN

CITY           SKY/WX    TMP DP  RH WIND       PRES   REMARKS
ADRIAN         CLOUDY    10   4  76 SW3       30.00F
ALMA           CLOUDY    17  17  97 S6        29.94S WCI   9
ANN ARBOR      CLOUDY    16   7  67 S7        29.98F WCI   6
BAD AXE        CLOUDY    13  10  88 S8        29.94S WCI   2
CARO           CLOUDY    10   8  91 CALM      29.94F
DETROIT CITY   CLOUDY    18  11  74 SW10      30.00F WCI   6
DETROIT        FLURRIES  19   9  65 SW6       30.00F WCI  11
GROSSE ILE     CLOUDY    18  10  69 SW6       30.00F WCI  10
HILLSDALE      CLOUDY    16   9  73 S6        29.94F WCI   7
HOWELL         CLOUDY    17  14  87 S3        29.94F

CITY           SKY/WX    TMP DP  RH WIND       PRES   REMARKS
JACKSON        CLOUDY    18  11  74 S8        29.95F WCI   8
LAMBERTVILLE   MOCLDY    17   6  63 S5        30.00F WCI   9
LANSING        CLOUDY    19  16  88 S9        29.95F WCI   8
LAPEER         CLOUDY    17  12  81 SW5       29.96S WCI  10
MASON          CLOUDY    19  13  76 CALM      29.95F
MONROE         CLOUDY    16   6  64 SW3       30.00F
MT. CLEMENS    FLURRIES  18  14  86 SW7       29.97S WCI   8
PONTIAC        CLOUDY    16  12  84 SW5       29.95S WCI   9
PORT HOPE        N/A     17  11  77 SW5       29.92F WCI  10
PORT HURON     CLOUDY    12   9  85 CALM      29.98F
TRI CITIES     CLOUDY    15  14  95 S8        29.95S WCI   4
MIDLAND        CLOUDY    17  14  88 SW3       29.94S
TROY           FLURRIES  18  12  77 SW6       30.00S WCI   9
SAGINAW HB     CLOUDY    16  14  93 S6        29.95S WCI   7
$$
MIZ043>046-050>051-056>058-064>065-071>073-077>080-150900-
SOUTHWEST LOWER MICHIGAN

CITY           SKY/WX    TMP DP  RH WIND       PRES   REMARKS
BATTLE CREEK   CLOUDY    19  13  77 SW9       29.95F WCI   8
BENTON HARBOR  CLOUDY    22  13  68 S8        29.96F WCI  12
BIG RAPIDS     LGT SNOW  18  15  88 S3        29.88F
COLDWATER      CLOUDY    19  11  72 SW7       29.96F WCI   9
HOLLAND        CLOUDY    22  16  78 S6        29.94F WCI  14
GRAND RAPIDS   CLOUDY    20  16  84 S8        29.93F WCI  10
IONIA          CLOUDY    20  17  86 S7        29.92F WCI  11
KALAMAZOO      CLOUDY    20  14  77 S12       29.95F WCI   8
LUDINGTON      FLURRIES  27  16  64 SW14      29.86F WCI  15
MARSHALL       CLOUDY    19  12  76 SW5       29.94F WCI  12
MOUNT PLEASANT LGT SNOW  19  15  84 S5        29.92S WCI  13
MUSKEGON       CLOUDY    28  16  60 SW10      29.91F WCI  19
SOUTH HAVEN    CLOUDY    24  17  75 S5        29.95F WCI  18
$$
MIZ016>042-150900-
NORTHERN LOWER MICHIGAN

CITY           SKY/WX    TMP DP  RH WIND       PRES   REMARKS
ALPENA         FLURRIES  19  15  84 SW6       29.88F WCI  11
BEAVER ISLAND  LGT SNOW  24  21  89 NW6       29.80F WCI  16
BELLAIRE       LGT SNOW  21  19  93 S6        29.85F WCI  13
CADILLAC       FLURRIES  17  15  92 S6        29.82F WCI   8
CHARLEVOIX     LGT SNOW  23  21  94 S6        29.84F WCI  15
FRANKFORT      CLOUDY    28  18  65 W12G18    29.84F WCI  18
GAYLORD        LGT SNOW  17  12  80 S8        29.80F WCI   7
GRAYLING       LGT SNOW  17  13  84 S5        29.84F WCI  10
HARBOR SPRINGS LGT SNOW  20  18  92 S6        29.81F WCI  13
HOUGHTON LAKE  FLURRIES  17  13  84 S5        29.86F WCI  10
MANISTEE       FLURRIES  23  20  88 SE3       29.85F
OSCODA         CLOUDY    17  11  75 SW7       29.90F WCI   8
PELLSTON       LGT SNOW  20  18  92 SE6       29.82F VSB 3/4 WCI  12
ROGERS CITY    CLOUDY    19  14  81 SW9       29.86F WCI   8
TRAVERSE CITY  FLURRIES  21  17  84 S5        29.84F WCI  15
$$
MIZ007>008-015-150900-
EASTERN UPPER MICHIGAN

CITY           SKY/WX    TMP DP  RH WIND       PRES   REMARKS
KINROSS        LGT SNOW  16  12  86 SE3       29.81S FOG
MACKINAC ISLAN LGT SNOW  23  18  82 S6        29.81F WCI  15
NEWBERRY       LGT SNOW  16  15  97 S5        29.79S WCI   9
S. S. MARIE    LGT SNOW  16  12  84 E3        29.82F FOG
MUNISING         N/A     18  16  92 S7        29.79F WCI   9
$$
MIZ004>006-011>014-085-150900-
CENTRAL UPPER MICHIGAN

CITY           SKY/WX    TMP DP  RH WIND       PRES   REMARKS
MANISTIQUE     LGT SNOW  17  12  81 W5        29.80F WCI  10
ESCANABA       LGT SNOW  18  15  88 SW6       29.81F FOG     WCI  10
MENOMINEE      LGT SNOW  20  18  92 W6        29.84F FOG     WCI  12
SAWYER-GWINN   LGT SNOW  15  13  90 SW6       29.74F WCI   6
$$
MIZ001>003-009>011-084-150900-
WESTERN UPPER MICHIGAN

CITY           SKY/WX    TMP DP  RH WIND       PRES   REMARKS
IRON MOUNTAIN  LGT SNOW  17  12  80 W3        29.76F
HOUGHTON       FLURRIES  20  14  77 N6        29.74F WCI  12
COPPER HARBOR    N/A     23  18  81 NE12      29.76F WCI  12
IRONWOOD       LGT SNOW  14  11  87 W16       29.81S FOG     WCI  -2
$$

ABBREVIATIONS USED IN REMARKS
   TC - TEMPERATURE IN CELSIUS
  WCI - WIND CHILL INDEX
   HX - HEAT INDEX
  VSB - VISIBILITY





USA.gov is the U.S. government's official web portal to all federal, state and local government web resources and services.